Location: Kitchener
(43.4500°N, 80.5000°W)
Time: 05:30:42
(UTC-04:00)

ATLAS 5 CENTAUR R/B - Visible Passes

Search period start: 01 November 2014 00:00
Search period end: 10 November 2014 23:00
Orbit: 714 x 949 km, 63.4° (Epoch: 19 October)

Date Brightness Start Highest point End Pass type
(mag) Time Alt. Az. Time Alt. Az. Time Alt. Az.
01 Nov 5.2 19:01:25 10° WNW 19:05:52 22° WSW 19:10:25 10° SSW visible
02 Nov 5.2 17:42:43 10° WNW 17:47:18 23° WSW 17:52:00 10° SSW visible
04 Nov 4.5 06:30:25 10° S 06:34:40 27° ESE 06:39:08 10° ENE visible
05 Nov 4.6 06:11:56 10° SSE 06:16:06 26° ESE 06:20:27 10° ENE visible
06 Nov 4.6 05:53:29 10° SSE 05:57:32 24° ESE 06:01:46 10° ENE visible
07 Nov 4.5 05:35:02 10° SSE 05:38:58 23° ESE 05:43:04 10° ENE visible
08 Nov 4.5 05:16:35 10° SSE 05:20:24 21° ESE 05:24:22 10° ENE visible
09 Nov 4.5 04:58:09 10° SSE 05:01:50 20° ESE 05:05:39 10° ENE visible
10 Nov 4.6 04:39:44 10° SSE 04:43:16 19° ESE 04:46:55 10° ENE visible
10 Nov 2.0 06:22:14 10° SW 06:27:22 66° NW 06:32:51 10° NNE visible
